Tracking 32139 objects as of 18-Nov-2025
HD Live streaming from Space Station
objects crossing your sky now

GEESAT 5-05

Track GEESAT 5-05 now!
10-day predictions
GEESAT 5-05 is classified as:


NORAD ID: 65554
Int'l Code: 2025-201E
Perigee: 609.2 km
Apogee: 622.1 km
Inclination: 50.0 °
Period: 96.9 minutes
Semi major axis: 6986 km
RCS: Unknown
Launch date: September 8, 2025
Source: People's Republic of China (PRC)
Launch site: Yellow Sea Launch Area, China (YSLA)
Your satellite tracking list
Your tracking list is empty




NASA's NSSDC Master Catalog

Two Line Element Set (TLE):
1 65554U 25201E   25321.77892883  .00004431  00000-0  51949-3 0  9993
2 65554  49.9821 299.4507 0009202 194.6210 165.4464 14.86614139 10400
Source of the keplerian elements: AFSPC